1498701601.11,12393,18.19,73288.0,8.25,7.79,7.83,0,*7D
1498701602.36,12394,18.19,73286.8,8.25,7.91,7.83,0,*7C
1498701603.57,12395,18.19,73282.5,8.27,7.83,7.87,0,*78
1498701604.82,12396,18.19,73280.8,8.25,7.83,7.83,0,*7D
1498701606.06,12397,18.19,73286.3,8.25,7.83,7.83,0,*7C
1498701607.27,12398,18.19,73296.0,8.25,7.79,7.79,0,*73
1498701608.52,12399,18.19,73292.0,8.25,7.73,7.69,0,*79
1498701609.73,12400,18.19,73292.0,8.27,7.59,7.61,0,*7C
1498701610.93,12401,18.19,73282.8,8.25,7.55,7.55,0,*74
1498701612.13,12402,18.19,73276.3,8.25,7.55,7.59,0,*7B
1498701613.39,12403,18.19,73296.8,8.25,7.69,7.69,0,*76
1498701614.62,12404,18.19,73300.3,8.25,7.59,7.61,0,*7A
1498701615.79,12405,18.19,73294.5,8.27,7.41,7.37,0,*73
1498701617.04,12406,18.19,73288.3,8.25,7.27,7.23,0,*77
1498701618.29,12407,18.19,73290.0,8.25,7.23,7.23,0,*72
1498701619.46,12408,18.19,73296.8,8.27,7.45,7.37,0,*7A
1498701620.66,12409,18.19,73296.0,8.25,7.55,7.59,0,*70
1498701621.89,12410,18.19,73294.5,8.25,7.61,7.59,0,*7F
1498701623.14,12411,18.19,73298.3,8.25,7.69,7.69,0,*75
1498701624.4,12412,18.19,73300.8,8.25,7.73,7.69,0,*7D
1498701625.6,12413,18.19,73290.8,8.25,7.59,7.59,0,*77
1498701626.84,12414,18.19,73286.0,8.25,7.47,7.47,0,*70
1498701628.09,12415,18.19,73260.8,8.25,7.15,7.15,0,*71
1498701629.34,12416,18.19,73272.8,8.25,7.15,7.23,0,*77
1498701630.59,12417,18.19,73290.3,8.25,7.23,7.23,0,*73
1498701631.78,12418,18.19,73300.8,8.25,7.37,7.37,0,*7C
1498701632.99,12419,18.19,73296.8,8.25,7.55,7.55,0,*7D
1498701634.16,12420,18.19,73302.8,8.23,7.51,7.51,0,*71
1498701635.34,12421,18.19,73304.3,8.23,7.59,7.55,0,*7C
1498701636.51,12422,18.19,73300.8,8.23,7.55,7.55,0,*73
1498701637.69,12423,18.19,73292.8,8.23,7.55,7.55,0,*72
1498701638.88,12424,18.19,73302.3,8.21,7.33,7.33,0,*77
1498701640.1,12425,18.19,73300.5,8.25,7.33,7.27,0,*77
1498701641.32,12426,18.19,73296.3,8.25,7.33,7.27,0,*74
1498701642.52,12427,18.19,73284.5,8.23,7.19,7.29,0,*75
1498701643.75,12428,18.19,73288.3,8.25,7.05,7.11,0,*7A
1498701644.95,12429,18.19,73272.3,8.23,7.09,7.11,0,*71
1498701646.15,12430,18.19,73278.0,8.23,7.23,7.29,0,*7A
1498701647.4,12431,18.19,73278.3,8.21,7.23,7.19,0,*7A
1498701648.56,12432,18.19,73274.8,8.23,7.01,7.01,0,*72
1498701649.77,12433,18.19,73286.5,8.21,6.97,6.97,0,*71
1498701650.97,12434,18.19,73272.8,8.21,6.97,6.97,0,*76
1498701652.18,12435,18.19,73276.3,8.23,6.29,6.39,0,*74
1498701653.4,12436,18.19,73280.8,8.21,6.17,6.33,0,*72
1498701654.65,12437,18.19,73280.5,8.21,6.17,6.43,0,*74
1498701655.86,12438,18.19,73274.3,8.23,6.21,6.51,0,*7F
1498701657.08,12439,18.19,73272.8,8.17,6.07,6.39,0,*73
1498701658.29,12440,18.19,73272.3,8.17,6.03,6.29,0,*78
1498701659.52,12441,18.19,73274.8,8.17,5.99,6.51,0,*76
1498701660.73,12442,18.19,73270.5,8.15,5.99,6.47,0,*70
1498701661.93,12443,18.19,73268.3,8.15,6.33,6.73,0,*75
1498701663.12,12444,18.19,73242.5,8.15,6.57,6.79,0,*7A
1498701664.34,12445,18.19,73254.3,8.15,6.53,6.53,0,*77
1498701665.57,12446,18.19,73256.3,8.15,6.47,6.47,0,*74
1498701666.8,12447,18.19,73254.5,8.11,6.39,6.33,0,*7B
1498701667.99,12448,18.19,73254.8,8.15,6.79,6.69,0,*7B
1498701669.22,12449,18.19,73250.0,8.17,6.93,6.87,0,*7C
1498701670.44,12450,18.19,73252.5,8.11,6.87,6.79,0,*76
1498701671.69,12451,18.19,73244.0,8.11,6.91,6.87,0,*71
1498701672.9,12452,18.19,73232.8,8.15,6.43,6.33,0,*76
1498701674.1,12453,18.19,73236.5,8.15,5.41,5.27,0,*70
1498701675.32,12454,18.19,73264.5,8.11,5.05,4.81,0,*7E
1498701676.54,12455,18.19,73258.0,8.07,4.31,4.19,0,*7F
1498701677.77,12456,18.19,73258.8,8.05,4.75,4.59,0,*7A
1498701678.99,12457,18.19,73268.8,8.03,4.23,4.01,0,*73
1498701680.2,12458,18.19,73266.0,8.01,4.59,4.45,0,*73
1498701681.41,12459,18.19,73264.8,7.99,4.53,4.41,0,*72
1498701682.61,12460,18.19,73262.8,7.95,5.29,5.23,0,*7D
1498701683.81,12461,18.19,73260.5,7.95,5.45,5.45,0,*76
1498701685.04,12462,18.19,73268.8,7.95,5.99,5.89,0,*74
1498701686.27,12463,18.19,73264.8,7.95,6.21,6.13,0,*75
1498701687.48,12464,18.19,73270.0,7.95,5.67,5.63,0,*77
1498701688.69,12465,18.19,73250.3,7.89,5.95,5.89,0,*72
1498701689.92,12466,18.19,73260.0,7.93,6.47,6.35,0,*72
1498701691.15,12467,18.19,73272.5,7.89,6.53,6.53,0,*7D
1498701692.34,12468,18.19,73256.5,7.93,6.79,6.69,0,*78
1498701693.55,12469,18.19,73254.8,7.89,6.91,6.75,0,*79
1498701694.72,12470,18.19,73238.8,7.93,7.01,7.01,0,*70
1498701695.92,12471,18.19,73250.0,7.93,7.11,7.05,0,*74
1498701697.1,12472,18.19,73242.8,7.93,6.83,6.79,0,*77
1498701698.32,12473,18.19,73240.5,7.89,6.53,6.53,0,*78
1498701699.55,12474,18.19,73244.3,7.93,6.57,6.51,0,*72
1498701700.79,12475,18.19,73256.5,7.93,6.91,6.91,0,*75
1498701701.99,12476,18.19,73258.3,7.93,7.11,7.01,0,*77
1498701703.22,12477,18.19,73256.5,7.93,7.15,7.15,0,*77
1498701704.45,12478,18.19,73278.3,7.93,7.23,7.23,0,*78
1498701705.68,12479,18.19,73264.0,7.93,7.23,7.15,0,*7C
1498701706.94,12480,18.19,73268.3,7.95,7.23,7.23,0,*79
1498701708.16,12481,18.19,73272.0,7.97,7.19,7.27,0,*77
1498701709.42,12482,18.19,73268.5,7.95,7.11,7.11,0,*7B
1498701710.62,12483,18.19,73260.8,7.95,7.05,7.05,0,*7A
1498701711.85,12484,18.19,73266.0,7.97,7.15,7.15,0,*7F
1498701713.08,12485,18.19,73274.8,7.97,7.27,7.27,0,*7E
1498701714.25,12486,18.19,73260.0,7.97,7.41,7.33,0,*78
1498701715.51,12487,18.19,73262.0,7.95,7.27,7.27,0,*7E
1498701716.69,12488,18.19,73268.0,7.97,7.33,7.29,0,*78
1498701717.87,12489,18.19,73242.8,7.97,7.33,7.33,0,*72
1498701719.04,12490,18.19,73256.8,7.97,7.41,7.41,0,*7A
1498701720.24,12491,18.19,73258.5,7.99,7.41,7.41,0,*75
1498701721.44,12492,18.19,73244.5,7.99,7.41,7.41,0,*76
1498701722.61,12493,18.19,73242.5,8.01,7.45,7.45,0,*79
1498701723.79,12494,18.19,73246.5,8.01,7.45,7.45,0,*7E
1498701724.96,12495,18.19,73246.0,8.01,7.45,7.37,0,*7A
1498701726.19,12496,18.19,73246.8,8.03,7.51,7.47,0,*79
1498701727.42,12497,18.19,73258.3,8.03,7.51,7.47,0,*78
1498701728.67,12498,18.19,73272.5,8.03,7.47,7.47,0,*70
1498701729.89,12499,18.19,73274.3,8.03,7.51,7.47,0,*76
1498701731.1,12500,18.19,73282.0,8.03,7.59,7.51,0,*78
1498701732.33,12501,18.19,73268.5,8.03,7.61,7.59,0,*7A
1498701733.59,12502,18.19,73262.3,8.03,7.61,7.69,0,*7A
1498701734.85,12503,18.19,73270.0,8.03,7.61,7.69,0,*7B
1498701736.08,12504,18.19,73292.0,8.05,7.61,7.61,0,*72
1498701737.32,12505,18.19,73274.0,8.05,7.61,7.61,0,*73
1498701738.55,12506,18.19,73264.0,8.05,7.61,7.61,0,*70
1498701739.77,12507,18.19,73270.5,8.05,7.69,7.61,0,*79
1498701741.0,12508,18.19,73272.0,8.05,7.69,7.61,0,*76
1498701742.23,12509,18.19,73272.5,8.05,7.69,7.61,0,*77
1498701743.46,12510,18.19,73262.5,8.05,7.73,7.69,0,*7C
1498701744.69,12511,18.19,73268.0,8.05,7.73,7.73,0,*76
1498701745.94,12512,18.19,73264.5,8.07,7.83,7.77,0,*7C
1498701747.19,12513,18.19,73276.3,8.07,7.73,7.73,0,*76
1498701748.42,12514,18.19,73274.8,8.09,7.69,7.65,0,*73
1498701749.67,12515,18.19,73288.5,8.07,7.77,7.65,0,*73
1498701750.89,12516,18.19,73290.8,8.09,7.91,7.87,0,*7A
1498701752.14,12517,18.19,73284.0,8.07,7.87,7.87,0,*72
1498701753.36,12518,18.19,73288.5,8.09,7.87,7.91,0,*74
1498701754.56,12519,18.19,73302.8,8.09,7.91,7.97,0,*74
1498701755.81,12520,18.19,73302.8,8.11,7.87,7.87,0,*71
1498701757.04,12521,18.19,73308.8,8.11,7.79,7.87,0,*71
1498701758.24,12522,18.19,73304.5,8.11,7.79,7.79,0,*73
1498701759.47,12523,18.19,73304.0,8.15,7.91,7.91,0,*76
1498701760.69,12524,18.19,73302.5,8.15,7.91,7.95,0,*75
1498701761.94,12525,18.19,73296.5,8.11,7.87,7.87,0,*74
1498701763.19,12526,18.19,73296.0,8.11,7.87,7.87,0,*77
1498701764.41,12527,18.19,73290.0,8.15,7.91,7.95,0,*76
1498701765.64,12528,18.19,73288.3,8.15,7.91,7.83,0,*7E
1498701766.85,12529,18.19,73282.5,8.15,7.83,7.83,0,*7C
1498701768.03,12530,18.19,73286.3,8.15,7.79,7.79,0,*74
1498701769.29,12531,18.19,73284.3,8.17,7.83,7.77,0,*7C
1498701770.54,12532,18.19,73276.8,8.17,7.77,7.83,0,*7F
1498701771.78,12533,18.19,73274.8,8.19,7.77,7.73,0,*7F
1498701773.03,12534,18.19,73270.0,8.17,7.65,7.73,0,*75
1498701774.28,12535,18.19,73282.3,8.17,7.65,7.65,0,*73
1498701775.53,12536,18.19,73274.5,8.17,7.65,7.65,0,*70
1498701776.79,12537,18.19,73290.3,8.17,7.65,7.61,0,*75
1498701778.02,12538,18.19,73278.5,8.17,7.61,7.55,0,*79
1498701779.22,12539,18.19,73270.0,8.17,7.51,7.51,0,*7F
1498701780.45,12540,18.19,73276.5,8.17,7.47,7.41,0,*77
1498701781.7,12541,18.19,73286.5,8.17,7.47,7.47,0,*70
1498701782.91,12542,18.19,73290.8,8.17,7.55,7.51,0,*77
1498701784.11,12543,18.19,73286.3,8.17,7.55,7.55,0,*72
1498701785.3,12544,18.19,73290.3,8.19,7.51,7.51,0,*7B
1498701786.51,12545,18.19,73260.0,8.19,7.51,7.61,0,*79
1498701787.76,12546,18.19,73266.8,8.17,7.61,7.65,0,*73
1498701789.01,12547,18.19,73278.8,8.17,7.65,7.61,0,*72
1498701790.22,12548,18.19,73270.0,8.19,7.61,7.55,0,*70
1498701791.43,12549,18.19,73272.5,8.17,7.55,7.51,0,*7C
1498701792.64,12550,18.19,73276.0,8.17,7.55,7.51,0,*74
1498701793.84,12551,18.19,73274.8,8.17,7.51,7.55,0,*75
1498701795.02,12552,18.19,73276.0,8.19,7.55,7.55,0,*7C
1498701796.27,12553,18.19,73272.5,8.17,7.65,7.65,0,*73
1498701797.5,12554,18.19,73280.8,8.19,7.65,7.65,0,*7A
1498701798.73,12555,18.19,73282.5,8.19,7.73,7.65,0,*7C
1498701799.96,12556,18.19,73288.0,8.19,7.73,7.73,0,*78
1498701801.19,12557,18.19,73288.8,8.19,7.65,7.65,0,*79
1498701802.42,12558,18.19,73284.0,8.19,7.65,7.73,0,*71
1498701803.63,12559,18.19,73290.5,8.19,7.55,7.61,0,*70
1498701804.81,12560,18.19,73292.3,8.19,7.51,7.51,0,*7D
1498701806.04,12561,18.19,73272.3,8.19,6.57,6.61,0,*79
1498701807.21,12562,18.19,73262.5,8.19,6.93,7.05,0,*71
1498701808.44,12563,18.19,73272.3,8.17,7.05,7.15,0,*71
1498701809.7,12564,18.19,73284.8,8.17,6.87,6.91,0,*70
1498701810.92,12565,18.19,73282.8,8.17,6.75,6.73,0,*70
1498701812.15,12566,18.19,73288.5,8.17,6.83,6.87,0,*71
1498701813.35,12567,18.19,73292.3,8.17,6.97,7.05,0,*7E
1498701814.6,12568,18.19,73318.5,8.17,6.87,6.87,0,*7B
1498701815.8,12569,18.19,73308.5,8.15,7.11,7.05,0,*7D
1498701816.99,12570,18.19,73310.5,8.15,7.15,7.05,0,*71
1498701818.18,12571,18.19,73318.0,8.15,7.11,7.01,0,*70
1498701819.37,12572,18.19,73326.5,8.15,7.01,6.91,0,*7A
1498701820.59,12573,18.19,73314.8,8.15,6.69,6.57,0,*7E
1498701821.77,12574,18.19,73284.5,8.15,6.33,6.25,0,*73
1498701822.98,12575,18.19,73280.8,8.09,6.21,6.17,0,*7D
1498701824.2,12576,18.19,73286.3,8.09,6.53,6.43,0,*7A
1498701825.43,12577,18.19,73294.0,8.09,6.53,6.43,0,*7B
1498701826.67,12578,18.19,73288.3,8.09,6.47,6.47,0,*75
1498701827.84,12579,18.19,73286.8,8.09,6.79,6.75,0,*78
1498701829.04,12580,18.19,73266.3,8.09,6.75,6.69,0,*7F
1498701830.23,12581,18.19,73268.3,8.07,6.75,6.75,0,*7D
1498701831.42,12582,18.19,73258.5,8.07,6.83,6.83,0,*7E
1498701832.64,12583,18.19,73262.5,8.07,6.87,6.83,0,*7B
1498701833.84,12584,18.19,73242.8,8.07,6.93,6.93,0,*78
1498701835.04,12585,18.19,73254.3,8.07,6.93,6.93,0,*79
1498701836.26,12586,18.19,73256.0,8.07,6.93,6.87,0,*7F
1498701837.51,12587,18.19,73254.5,8.07,6.73,6.73,0,*7B
1498701838.76,12588,18.19,73268.8,8.07,6.65,6.65,0,*74
1498701840.0,12589,18.19,73268.8,8.07,6.73,6.73,0,*75
1498701841.17,12590,18.19,73258.8,8.05,6.79,6.79,0,*7F
1498701842.34,12591,18.19,73276.0,8.05,7.05,7.01,0,*7A
1498701843.57,12592,18.19,73256.8,8.05,7.27,7.27,0,*7D
1498701844.77,12593,18.19,73262.0,8.05,7.47,7.51,0,*7B
1498701845.99,12594,18.19,73262.5,8.05,7.47,7.47,0,*7B
1498701847.17,12595,18.19,73250.3,8.05,7.59,7.51,0,*72
1498701848.42,12596,18.19,73274.5,8.07,7.73,7.73,0,*7B
1498701849.65,12597,18.19,73258.0,8.09,7.69,7.69,0,*74
1498701850.88,12598,18.19,73268.0,8.07,7.51,7.61,0,*76
1498701852.07,12599,18.19,73276.8,8.07,7.45,7.41,0,*70
1498701853.27,12600,18.19,73274.3,8.07,7.41,7.41,0,*77
1498701854.48,12601,18.19,73278.8,8.09,7.77,7.79,0,*76
1498701855.66,12602,18.19,73264.5,8.09,7.79,7.79,0,*7B
1498701856.91,12603,18.19,73272.5,8.11,7.87,7.91,0,*74
1498701858.15,12604,18.19,73274.0,8.11,7.87,7.91,0,*73
1498701859.38,12605,18.19,73270.8,8.15,7.91,7.95,0,*75
1498701860.6,12606,18.19,73262.0,8.11,7.97,7.91,0,*70
1498701861.82,12607,18.19,73268.8,8.15,7.65,7.69,0,*7F
1498701863.05,12608,18.19,73276.0,8.15,7.69,7.69,0,*7C
1498701864.22,12609,18.19,73270.5,8.15,7.59,7.59,0,*7D
1498701865.45,12610,18.19,73270.3,8.15,7.69,7.69,0,*75
1498701866.67,12611,18.19,73268.8,8.15,7.83,7.83,0,*74
1498701867.85,12612,18.19,73252.5,8.15,7.79,7.79,0,*77
1498701869.1,12613,18.19,73248.5,8.17,7.83,7.77,0,*7F
1498701870.31,12614,18.19,73254.8,8.15,7.79,7.73,0,*7B
1498701871.54,12615,18.19,73250.0,8.15,7.73,7.73,0,*70
1498701872.77,12616,18.19,73222.3,8.15,7.73,7.69,0,*78
1498701874.03,12617,18.19,73242.3,8.17,7.77,7.73,0,*74
1498701875.29,12618,18.19,73248.0,8.17,7.77,7.77,0,*7F
1498701876.54,12619,18.19,73268.8,8.17,7.83,7.77,0,*75
1498701877.77,12620,18.19,73258.3,8.19,7.83,7.83,0,*7A
1498701878.99,12621,18.19,73276.0,8.19,7.83,7.83,0,*7B
1498701880.21,12622,18.19,73224.8,8.19,7.83,7.87,0,*7C
1498701881.44,12623,18.19,73228.0,8.19,7.83,7.77,0,*72
1498701882.68,12624,18.19,73236.8,8.19,7.77,7.73,0,*7A
1498701883.9,12625,18.19,73214.3,8.19,7.87,7.83,0,*7B
1498701885.15,12626,18.19,73146.0,8.17,7.87,7.87,0,*72
1498701886.39,12627,18.19,73234.8,8.19,7.77,7.73,0,*79
1498701887.61,12628,18.19,73242.8,8.19,7.65,7.65,0,*72
1498701888.86,12629,18.19,73218.0,8.21,7.91,7.87,0,*7F
1498701890.07,12630,18.19,73198.3,8.21,7.79,7.79,0,*70
1498701891.32,12631,18.19,73216.3,8.21,7.65,7.77,0,*72
1498701892.57,12632,18.19,73218.0,8.21,7.65,7.69,0,*7E
1498701893.8,12633,18.19,73214.0,8.21,7.79,7.77,0,*7D
1498701895.01,12634,18.19,73214.0,8.23,7.79,7.77,0,*78
1498701896.21,12635,18.19,73218.8,8.23,7.77,7.79,0,*79
1498701897.42,12636,18.19,73214.0,8.21,7.79,7.79,0,*76
1498701898.64,12637,18.19,73212.0,8.21,7.87,7.79,0,*76
1498701899.87,12638,18.19,73210.3,8.21,7.79,7.77,0,*76
1498701901.1,12639,18.19,73212.8,8.21,7.87,7.79,0,*78
1498701902.32,12640,18.19,73214.3,8.21,7.87,7.79,0,*76
1498701903.52,12641,18.19,73218.3,8.23,7.87,7.79,0,*75
1498701904.72,12642,18.19,73216.8,8.23,7.79,7.91,0,*71
1498701905.94,12643,18.19,73220.0,8.23,7.87,7.87,0,*76
1498701907.14,12644,18.19,73216.5,8.23,7.79,7.91,0,*77
1498701908.34,12645,18.19,73240.3,8.23,7.79,7.87,0,*71
1498701909.54,12646,18.19,73206.0,8.23,7.91,7.79,0,*75
1498701910.72,12647,18.19,73226.8,8.23,7.79,7.79,0,*72
1498701911.95,12648,18.19,73212.5,8.23,7.77,7.77,0,*7D
1498701913.15,12649,18.19,73200.3,8.23,7.79,7.77,0,*72
1498701914.4,12650,18.19,73200.8,8.25,7.83,7.91,0,*71
1498701915.62,12651,18.19,73192.8,8.25,7.79,7.91,0,*75
1498701916.82,12652,18.19,73192.3,8.27,7.95,7.97,0,*70
1498701917.99,12653,18.19,73210.0,8.27,7.97,8.05,0,*77
1498701919.16,12654,18.19,73218.3,8.27,8.05,8.09,0,*78
1498701920.33,12655,18.19,73220.0,8.27,8.05,8.05,0,*75
1498701921.5,12656,18.19,73226.8,8.27,8.05,8.09,0,*7A
1498701922.7,12657,18.19,73236.5,8.25,8.05,8.01,0,*71
1498701923.87,12658,18.19,73222.8,8.27,8.05,8.05,0,*78
1498701925.04,12659,18.19,73234.0,8.27,8.05,8.05,0,*79
1498701926.21,12660,18.19,73208.0,8.27,8.05,8.05,0,*73
1498701927.41,12661,18.19,73210.0,8.25,8.01,8.01,0,*70
1498701928.61,12662,18.19,73228.8,8.29,8.05,8.05,0,*7F
1498701929.87,12663,18.19,73236.8,8.29,7.95,7.95,0,*7E
1498701931.04,12664,18.19,73236.8,8.31,8.01,8.01,0,*70
1498701932.27,12665,18.19,73228.0,8.29,7.95,7.97,0,*7A
1498701933.46,12666,18.19,73234.5,8.29,7.97,7.97,0,*7B
1498701934.72,12667,18.19,73244.8,8.29,7.95,7.95,0,*7A
1498701935.92,12668,18.19,73256.3,8.31,7.97,7.95,0,*7E
1498701937.14,12669,18.19,73256.0,8.31,7.91,7.87,0,*7A
1498701938.36,12670,18.19,73258.8,8.31,7.91,7.91,0,*75
1498701939.61,12671,18.19,73244.0,8.29,7.87,7.95,0,*7E
1498701940.81,12672,18.19,73230.3,8.31,7.87,7.97,0,*76
1498701942.03,12673,18.19,73222.5,8.31,7.87,7.87,0,*76
1498701943.24,12674,18.19,73236.3,8.31,7.87,7.87,0,*71
1498701944.47,12675,18.19,73254.5,8.29,7.87,7.79,0,*78
1498701945.65,12676,18.19,73228.0,8.31,7.79,7.79,0,*73
1498701946.88,12677,18.19,73226.3,8.31,7.69,7.69,0,*72
1498701948.14,12678,18.19,73254.3,8.29,7.61,7.61,0,*74
1498701949.39,12679,18.19,73246.0,8.29,7.73,7.77,0,*71
1498701950.65,12680,18.19,73264.3,8.29,7.73,7.77,0,*77
1498701951.9,12681,18.19,73276.5,8.29,7.65,7.65,0,*72
1498701953.15,12682,18.19,73280.5,8.29,7.73,7.65,0,*76
1498701954.38,12683,18.19,73274.8,8.31,7.73,7.69,0,*72
1498701955.56,12684,18.19,73272.0,8.31,7.79,7.79,0,*7E
1498701956.76,12685,18.19,73270.3,8.31,7.87,7.79,0,*7E
1498701957.94,12686,18.19,73286.3,8.31,7.79,7.79,0,*7C
1498701959.16,12687,18.19,73286.3,8.31,7.87,7.87,0,*7D
1498701960.35,12688,18.19,73280.8,8.31,7.79,7.87,0,*73
1498701961.61,12689,18.19,73282.5,8.33,7.77,7.77,0,*71
1498701962.83,12690,18.19,73282.0,8.31,7.69,7.65,0,*77
1498701964.01,12691,18.19,73282.0,8.31,7.55,7.55,0,*7A
1498701965.21,12692,18.19,73286.8,8.29,7.59,7.59,0,*70
1498701966.43,12693,18.19,73286.5,8.31,7.69,7.69,0,*78
1498701967.64,12694,18.19,73288.0,8.31,7.79,7.69,0,*7E
1498701968.86,12695,18.19,73294.8,8.31,7.65,7.65,0,*7E
1498701970.08,12696,18.19,73244.3,8.31,7.65,7.69,0,*71
1498701971.31,12697,18.19,73240.8,8.31,7.69,7.77,0,*73
1498701972.53,12698,18.19,73240.3,8.31,7.65,7.65,0,*73
1498701973.74,12699,18.19,73254.5,8.31,7.65,7.65,0,*72
1498701974.96,12700,18.19,73244.0,8.31,7.65,7.65,0,*73
1498701976.19,12701,18.19,73218.0,8.31,7.69,7.61,0,*7A
1498701977.41,12702,18.19,73234.8,8.31,7.65,7.69,0,*7D
1498701978.64,12703,18.19,73240.0,8.31,7.65,7.61,0,*74
1498701979.86,12704,18.19,73268.0,8.31,7.65,7.65,0,*77
1498701981.08,12705,18.19,73280.8,8.31,7.65,7.61,0,*72
1498701982.31,12706,18.19,73262.8,8.31,7.61,7.61,0,*75
1498701983.52,12707,18.19,73258.5,8.29,7.51,7.51,0,*7D
1498701984.74,12708,18.19,73254.5,8.29,7.47,7.41,0,*74
1498701985.92,12709,18.19,73246.8,8.31,7.51,7.51,0,*7A
1498701987.11,12710,18.19,73252.0,8.31,7.41,7.47,0,*74
1498701988.31,12711,18.19,73286.5,8.29,7.59,7.59,0,*7A
1498701989.52,12712,18.19,73302.0,8.29,7.59,7.59,0,*79
1498701990.72,12713,18.19,73300.3,8.31,7.61,7.55,0,*76
1498701991.92,12714,18.19,73278.8,8.29,7.59,7.59,0,*7F
1498701993.17,12715,18.19,73284.8,8.29,7.65,7.65,0,*7E
1498701994.42,12716,18.19,73292.8,8.29,7.73,7.73,0,*7D
1498701995.62,12717,18.19,73326.5,8.31,7.69,7.79,0,*74
1498701996.84,12718,18.19,73274.8,8.31,7.65,7.65,0,*7A
1498701998.01,12719,18.19,73294.5,8.31,7.41,7.41,0,*7B
1498701999.22,12720,18.19,73290.5,8.29,7.29,6.97,0,*7C
1498702000.45,12721,18.19,73302.5,8.29,6.97,6.87,0,*78
1498702001.65,12722,18.19,73306.0,8.33,7.09,6.97,0,*77
1498702002.85,12723,18.19,73270.8,8.29,6.97,6.83,0,*7E
1498702004.08,12724,18.19,73282.5,8.29,7.15,7.09,0,*71
1498702005.28,12725,18.19,73290.3,8.29,7.37,7.29,0,*72
1498702006.49,12726,18.19,73290.5,8.29,7.51,7.51,0,*7E
1498702007.72,12727,18.19,73298.5,8.31,7.61,7.61,0,*76
1498702008.92,12728,18.19,73296.5,8.29,7.59,7.59,0,*70
1498702010.12,12729,18.19,73306.8,8.29,7.59,7.59,0,*71
1498702011.35,12730,18.19,73300.5,8.29,7.59,7.61,0,*72
1498702012.58,12731,18.19,73294.5,8.31,7.69,7.69,0,*71
1498702013.84,12732,18.19,73294.5,8.29,7.65,7.61,0,*7F
1498702015.06,12733,18.19,73300.0,8.31,7.77,7.65,0,*70
1498702016.28,12734,18.19,73294.0,8.31,7.69,7.69,0,*74
1498702017.49,12735,18.19,73292.5,8.31,7.55,7.61,0,*72
1498702018.69,12736,18.19,73296.0,8.33,7.45,7.41,0,*70
1498702019.86,12737,18.19,73296.5,8.31,7.51,7.51,0,*77
1498702021.09,12738,18.19,73296.3,8.31,7.61,7.61,0,*78
1498702022.32,12739,18.19,73292.0,8.29,7.61,7.59,0,*7B
1498702023.54,12740,18.19,73294.8,8.29,7.65,7.59,0,*71
1498702024.77,12741,18.19,73294.5,8.31,7.69,7.61,0,*7E
1498702026.0,12742,18.19,73296.8,8.29,7.61,7.59,0,*77
1498702027.22,12743,18.19,73308.5,8.31,7.69,7.69,0,*74
1498702028.48,12744,18.19,73294.8,8.29,7.61,7.65,0,*7E
1498702029.72,12745,18.19,73286.8,8.29,7.65,7.65,0,*7B
1498702030.95,12746,18.19,73302.8,8.31,7.77,7.69,0,*7E
1498702032.16,12747,18.19,73326.3,8.31,7.79,7.69,0,*71
1498702033.39,12748,18.19,73318.5,8.31,7.77,7.69,0,*70
1498702034.64,12749,18.19,73284.0,8.33,7.65,7.61,0,*78
1498702035.82,12750,18.19,73300.3,8.31,7.51,7.51,0,*76
1498702037.04,12751,18.19,73314.3,8.29,7.61,7.59,0,*75
1498702038.27,12752,18.19,73318.5,8.31,7.69,7.69,0,*74
1498702039.5,12753,18.19,73314.5,8.31,7.77,7.69,0,*7A
1498702040.72,12754,18.19,73304.5,8.31,7.65,7.65,0,*72
1498702041.89,12755,18.19,73306.5,8.31,7.55,7.55,0,*73
1498702043.07,12756,18.19,73308.5,8.31,7.55,7.55,0,*70
1498702044.27,12757,18.19,73310.5,8.29,7.59,7.59,0,*78
1498702045.48,12758,18.19,73316.5,8.31,7.55,7.61,0,*79
1498702046.68,12759,18.19,73314.0,8.31,7.61,7.55,0,*78
1498702047.85,12760,18.19,73304.3,8.31,7.55,7.45,0,*74
1498702049.03,12761,18.19,73304.3,8.31,7.55,7.41,0,*71
1498702050.22,12762,18.19,73298.8,8.33,7.51,7.45,0,*70
1498702051.42,12763,18.19,73300.5,8.33,7.41,7.41,0,*74
1498702052.62,12764,18.19,73300.0,8.33,7.51,7.45,0,*76
1498702053.82,12765,18.19,73294.0,8.33,7.55,7.41,0,*77
1498702055.02,12766,18.19,73292.0,8.33,7.55,7.09,0,*78
1498702056.24,12767,18.19,73294.8,8.33,7.19,6.83,0,*72
1498702057.42,12768,18.19,73286.0,8.35,6.75,5.99,0,*78
1498702058.62,12769,18.19,73268.8,8.33,5.49,4.33,0,*72
1498702059.84,12770,18.19,73266.3,8.33,5.81,5.63,0,*7A
1498702061.05,12771,18.19,73254.8,8.33,5.63,6.03,0,*72
1498702062.27,12772,18.19,73256.3,8.31,4.71,5.81,0,*78
1498702063.48,12773,18.19,73252.8,8.29,4.19,5.59,0,*7B
1498702064.71,12774,18.19,73260.8,8.29,4.05,5.45,0,*7C
1498702065.9,12775,18.19,73254.0,8.27,5.49,5.93,0,*71
1498702067.15,12776,18.19,73250.5,8.29,6.61,6.61,0,*7B
1498702068.32,12777,18.19,73264.5,8.27,6.93,6.93,0,*74
1498702069.5,12778,18.19,73276.3,8.27,6.93,6.93,0,*7B
1498702070.72,12779,18.19,73270.5,8.25,6.57,6.75,0,*78
1498702071.94,12780,18.19,73272.3,8.25,6.33,6.57,0,*7C
1498702073.17,12781,18.19,73272.0,8.25,6.25,6.57,0,*7A
1498702074.39,12782,18.19,73270.3,8.27,6.35,6.73,0,*7C
1498702075.59,12783,18.19,73280.8,8.25,6.11,6.07,0,*7A
1498702076.81,12784,18.19,73276.0,8.25,5.41,5.27,0,*7A
1498702078.01,12785,18.19,73282.0,8.25,5.15,5.63,0,*7A
1498702079.22,12786,18.19,73284.8,8.25,5.29,5.89,0,*72
1498702080.44,12787,18.19,73278.8,8.25,5.33,5.73,0,*7D
1498702081.64,12788,18.19,73264.5,8.21,5.23,5.49,0,*7E
1498702082.84,12789,18.19,73264.5,8.21,5.59,5.63,0,*7A
1498702084.07,12790,18.19,73284.5,8.17,6.17,6.25,0,*7F
1498702085.32,12791,18.19,73292.0,8.17,6.73,6.73,0,*7F
1498702086.55,12792,18.19,73286.5,8.19,6.87,6.87,0,*72
1498702087.73,12793,18.19,73288.3,8.19,6.93,6.97,0,*77
1498702088.93,12794,18.19,73292.5,8.19,7.15,7.09,0,*79
1498702090.17,12795,18.19,73294.5,8.19,7.27,7.27,0,*75
1498702091.35,12796,18.19,73298.0,8.19,7.29,7.29,0,*76
1498702092.55,12797,18.19,73302.0,8.19,7.15,7.09,0,*7A
1498702093.73,12798,18.19,73306.3,8.19,7.09,7.09,0,*78
1498702094.96,12799,18.19,73296.0,8.19,6.87,6.87,0,*79
1498702096.17,12800,18.19,73292.5,8.19,6.73,6.75,0,*70
1498702097.42,12801,18.19,73296.3,8.17,6.61,6.61,0,*79
1498702098.62,12802,18.19,73302.5,8.17,6.75,6.75,0,*7A
1498702099.85,12803,18.19,73298.3,8.17,6.29,6.17,0,*76
1498702101.08,12804,18.19,73296.0,8.17,5.77,5.67,0,*7D
1498702102.28,12805,18.19,73292.8,8.11,6.07,5.95,0,*73
1498702103.49,12806,18.19,73296.8,8.15,6.57,6.57,0,*7C
1498702104.68,12807,18.19,73294.0,8.15,6.79,6.69,0,*7C
1498702105.85,12808,18.19,73292.3,8.15,6.79,6.79,0,*72
1498702107.08,12809,18.19,73296.8,8.11,6.97,6.91,0,*71
1498702108.26,12810,18.19,73294.0,8.15,6.97,7.01,0,*75
1498702109.45,12811,18.19,73288.0,8.11,7.01,6.97,0,*70
1498702110.69,12812,18.19,73276.0,8.11,6.97,6.91,0,*7B
1498702111.88,12813,18.19,73270.3,8.11,6.79,6.79,0,*7C
1498702113.08,12814,18.19,73272.5,8.15,6.91,6.79,0,*79
1498702114.3,12815,18.19,73264.3,8.11,6.91,6.79,0,*7C
1498702115.54,12816,18.19,73262.8,8.11,6.69,6.65,0,*75
1498702116.76,12817,18.19,73260.8,8.11,6.75,6.65,0,*79
1498702117.97,12818,18.19,73264.3,8.15,6.93,6.91,0,*71
1498702119.14,12819,18.19,73260.0,8.15,6.93,6.93,0,*72
1498702120.36,12820,18.19,73256.5,8.15,6.91,6.91,0,*78
1498702121.59,12821,18.19,73256.0,8.11,6.91,6.79,0,*7B
1498702122.82,12822,18.19,73238.0,8.11,6.97,6.91,0,*78
1498702124.03,12823,18.19,73232.5,8.09,7.29,7.11,0,*7D
1498702125.28,12824,18.19,73230.3,8.11,7.23,7.19,0,*71
1498702126.47,12825,18.19,73224.3,8.11,7.41,7.45,0,*7D
1498702127.72,12826,18.19,73232.0,8.11,7.47,7.47,0,*7A
1498702128.9,12827,18.19,73228.8,8.15,7.59,7.51,0,*77
1498702130.14,12828,18.19,73236.3,8.11,7.47,7.47,0,*74
1498702131.34,12829,18.19,73228.0,8.11,7.45,7.45,0,*75